Time,TemperatureF,DewpointF,PressureIn,WindDirection,WindDirectionDegrees,WindSpeedMPH,WindSpeedGustMPH,Humidity,HourlyPrecipIn,Conditions,Clouds,dailyrainin,SoftwareType,DateUTC
2013-01-10 00:00:00,47.1,30.9,30.25,WSW,244,0.0,0.0,53,0.00,,,0.00,VWS V14.01,2013-01-10 05:00:00,
2013-01-10 00:02:00,47.1,30.9,30.25,WSW,244,0.0,0.0,53,0.00,,,0.00,VWS V14.01,2013-01-10 05:02:00,
2013-01-10 00:30:00,46.2,30.5,30.27,SW,230,0.0,3.0,54,0.00,,,0.00,VWS V14.01,2013-01-10 05:30:00,
2013-01-10 00:31:00,46.2,30.5,30.27,SW,230,0.0,3.0,54,0.00,,,0.00,VWS V14.01,2013-01-10 05:31:00,
2013-01-10 01:00:00,46.1,29.9,30.28,West,260,0.0,5.0,53,0.00,,,0.00,VWS V14.01,2013-01-10 06:00:00,
2013-01-10 01:01:00,46.1,29.9,30.28,West,260,0.0,5.0,53,0.00,,,0.00,VWS V14.01,2013-01-10 06:01:00,
2013-01-10 01:30:00,45.4,29.7,30.28,West,277,1.0,5.0,54,0.00,,,0.00,VWS V14.01,2013-01-10 06:30:00,
2013-01-10 01:31:00,45.4,29.7,30.28,West,277,1.0,5.0,54,0.00,,,0.00,VWS V14.01,2013-01-10 06:31:00,
2013-01-10 02:00:00,46.0,28.4,30.30,WSW,240,0.0,7.0,50,0.00,,,0.00,VWS V14.01,2013-01-10 07:00:00,
2013-01-10 02:01:00,46.0,28.4,30.30,WSW,240,0.0,7.0,50,0.00,,,0.00,VWS V14.01,2013-01-10 07:01:00,
2013-01-10 02:30:00,44.5,28.0,30.31,WNW,285,0.0,5.0,52,0.00,,,0.00,VWS V14.01,2013-01-10 07:30:00,
2013-01-10 02:31:00,44.5,28.0,30.31,WNW,285,0.0,5.0,52,0.00,,,0.00,VWS V14.01,2013-01-10 07:31:00,
2013-01-10 03:00:00,45.7,26.6,30.31,WNW,298,2.0,8.0,47,0.00,,,0.00,VWS V14.01,2013-01-10 08:00:00,
2013-01-10 03:01:00,45.7,26.6,30.31,WNW,298,2.0,8.0,47,0.00,,,0.00,VWS V14.01,2013-01-10 08:01:00,
2013-01-10 03:30:00,44.6,26.6,30.31,WNW,292,3.0,8.0,49,0.00,,,0.00,VWS V14.01,2013-01-10 08:30:00,
2013-01-10 03:31:00,44.6,26.6,30.31,WNW,296,7.0,8.0,49,0.00,,,0.00,VWS V14.01,2013-01-10 08:31:00,
2013-01-10 04:00:00,45.1,25.6,30.32,WNW,292,3.0,11.0,46,0.00,,,0.00,VWS V14.01,2013-01-10 09:00:00,
2013-01-10 04:01:00,45.1,25.6,30.32,NNE,30,2.0,10.0,46,0.00,,,0.00,VWS V14.01,2013-01-10 09:01:00,
2013-01-10 04:30:00,43.9,26.0,30.33,NW,315,2.0,8.0,49,0.00,,,0.00,VWS V14.01,2013-01-10 09:30:00,
2013-01-10 04:31:00,43.9,26.0,30.33,West,272,1.0,8.0,49,0.00,,,0.00,VWS V14.01,2013-01-10 09:31:00,
2013-01-10 05:00:00,42.8,25.9,30.34,WNW,292,1.0,8.0,51,0.00,,,0.00,VWS V14.01,2013-01-10 10:00:00,
2013-01-10 05:01:00,42.8,25.9,30.34,WNW,289,0.0,8.0,51,0.00,,,0.00,VWS V14.01,2013-01-10 10:01:00,
2013-01-10 05:30:00,41.9,25.6,30.34,West,270,1.0,6.0,52,0.00,,,0.00,VWS V14.01,2013-01-10 10:30:00,
2013-01-10 05:31:00,41.9,25.6,30.34,West,274,0.0,6.0,52,0.00,,,0.00,VWS V14.01,2013-01-10 10:31:00,
2013-01-10 06:00:00,40.5,25.2,30.35,West,270,1.0,3.0,54,0.00,,,0.00,VWS V14.01,2013-01-10 11:00:00,
2013-01-10 06:01:00,40.5,25.2,30.35,West,274,0.0,3.0,54,0.00,,,0.00,VWS V14.01,2013-01-10 11:01:00,
2013-01-10 06:30:00,40.2,25.3,30.37,West,270,0.0,3.0,55,0.00,,,0.00,VWS V14.01,2013-01-10 11:30:00,
2013-01-10 06:31:00,40.2,25.3,30.37,West,281,0.0,2.0,55,0.00,,,0.00,VWS V14.01,2013-01-10 11:31:00,
2013-01-10 07:00:00,39.9,25.5,30.38,West,270,1.0,3.0,56,0.00,,,0.00,VWS V14.01,2013-01-10 12:00:00,
2013-01-10 07:01:00,39.9,25.5,30.38,West,281,1.0,3.0,56,0.00,,,0.00,VWS V14.01,2013-01-10 12:01:00,
2013-01-10 07:30:00,39.3,25.8,30.40,West,270,1.0,4.0,58,0.00,,,0.00,VWS V14.01,2013-01-10 12:30:00,
2013-01-10 07:31:00,39.3,25.8,30.40,WNW,301,0.0,4.0,58,0.00,,,0.00,VWS V14.01,2013-01-10 12:31:00,
2013-01-10 08:00:00,39.1,26.0,30.43,WNW,292,0.0,4.0,59,0.00,,,0.00,VWS V14.01,2013-01-10 13:00:00,
2013-01-10 08:01:00,39.1,26.0,30.43,WNW,302,0.0,3.0,59,0.00,,,0.00,VWS V14.01,2013-01-10 13:01:00,
2013-01-10 08:30:00,39.6,26.1,30.45,WNW,292,0.0,1.0,58,0.00,,,0.00,VWS V14.01,2013-01-10 13:30:00,
2013-01-10 08:31:00,39.6,26.1,30.45,WNW,302,0.0,1.0,58,0.00,,,0.00,VWS V14.01,2013-01-10 13:31:00,
2013-01-10 09:00:00,42.1,27.1,30.46,West,270,0.0,3.0,55,0.00,,,0.00,VWS V14.01,2013-01-10 14:00:00,
2013-01-10 09:01:00,42.1,27.1,30.46,West,264,0.0,3.0,55,0.00,,,0.00,VWS V14.01,2013-01-10 14:01:00,
2013-01-10 09:30:00,43.8,27.3,30.47,West,270,1.0,8.0,52,0.00,,,0.00,VWS V14.01,2013-01-10 14:30:00,
2013-01-10 09:31:00,43.8,27.3,30.47,NW,309,4.0,8.0,52,0.00,,,0.00,VWS V14.01,2013-01-10 14:31:00,
2013-01-10 10:00:00,44.8,28.3,30.48,WNW,292,2.0,8.0,52,0.00,,,0.00,VWS V14.01,2013-01-10 15:00:00,
2013-01-10 10:01:00,44.8,28.3,30.48,NW,305,1.0,8.0,52,0.00,,,0.00,VWS V14.01,2013-01-10 15:01:00,
2013-01-10 10:30:00,45.7,27.6,30.48,NW,315,3.0,11.0,49,0.00,,,0.00,VWS V14.01,2013-01-10 15:30:00,
2013-01-10 10:31:00,45.7,27.6,30.48,West,270,2.0,8.0,49,0.00,,,0.00,VWS V14.01,2013-01-10 15:31:00,
2013-01-10 11:00:00,46.8,26.6,30.48,West,270,3.0,8.0,45,0.00,,,0.00,VWS V14.01,2013-01-10 16:00:00,
2013-01-10 11:01:00,46.8,26.6,30.48,WNW,298,1.0,8.0,45,0.00,,,0.00,VWS V14.01,2013-01-10 16:01:00,
2013-01-10 11:30:00,47.9,27.6,30.45,WNW,292,3.0,8.0,45,0.00,,,0.00,VWS V14.01,2013-01-10 16:30:00,
2013-01-10 11:31:00,47.9,27.6,30.45,NW,311,2.0,7.0,45,0.00,,,0.00,VWS V14.01,2013-01-10 16:31:00,
2013-01-10 12:00:00,48.6,27.1,30.44,WNW,292,3.0,8.0,43,0.00,,,0.00,VWS V14.01,2013-01-10 17:00:00,
2013-01-10 12:01:00,48.6,27.1,30.44,West,265,1.0,7.0,43,0.00,,,0.00,VWS V14.01,2013-01-10 17:01:00,
2013-01-10 12:30:00,49.2,26.5,30.42,WNW,292,3.0,12.0,41,0.00,,,0.00,VWS V14.01,2013-01-10 17:30:00,
2013-01-10 12:31:00,49.2,26.5,30.42,WNW,284,2.0,12.0,41,0.00,,,0.00,VWS V14.01,2013-01-10 17:31:00,
2013-01-10 13:00:00,50.1,26.7,30.42,WNW,292,2.0,8.0,40,0.00,,,0.00,VWS V14.01,2013-01-10 18:00:00,
2013-01-10 13:01:00,49.9,26.6,30.42,WNW,284,1.0,8.0,40,0.00,,,0.00,VWS V14.01,2013-01-10 18:01:00,
2013-01-10 13:30:00,50.5,27.1,30.41,NW,315,2.0,7.0,40,0.00,,,0.00,VWS V14.01,2013-01-10 18:30:00,
2013-01-10 13:31:00,50.5,27.1,30.41,North,11,3.0,7.0,40,0.00,,,0.00,VWS V14.01,2013-01-10 18:31:00,
2013-01-10 14:00:00,51.1,28.2,30.41,NW,315,2.0,10.0,41,0.00,,,0.00,VWS V14.01,2013-01-10 19:00:00,
2013-01-10 14:01:00,51.1,28.2,30.41,WNW,298,7.0,10.0,41,0.00,,,0.00,VWS V14.01,2013-01-10 19:01:00,
2013-01-10 14:30:00,51.4,27.3,30.40,WNW,292,2.0,6.0,39,0.00,,,0.00,VWS V14.01,2013-01-10 19:30:00,
2013-01-10 14:31:00,51.4,27.3,30.40,WNW,288,2.0,7.0,39,0.00,,,0.00,VWS V14.01,2013-01-10 19:31:00,
2013-01-10 15:00:00,51.7,26.9,30.40,NW,315,2.0,7.0,38,0.00,,,0.00,VWS V14.01,2013-01-10 20:00:00,
2013-01-10 15:01:00,51.7,26.9,30.40,WNW,285,2.0,7.0,38,0.00,,,0.00,VWS V14.01,2013-01-10 20:01:00,
2013-01-10 15:30:00,50.8,27.4,30.40,WNW,292,1.0,7.0,40,0.00,,,0.00,VWS V14.01,2013-01-10 20:30:00,
2013-01-10 15:31:00,50.8,27.4,30.40,WNW,298,1.0,7.0,40,0.00,,,0.00,VWS V14.01,2013-01-10 20:31:00,
2013-01-10 16:00:00,50.5,28.3,30.40,WNW,292,1.0,3.0,42,0.00,,,0.00,VWS V14.01,2013-01-10 21:00:00,
2013-01-10 16:01:00,50.5,28.3,30.40,WNW,298,0.0,3.0,42,0.00,,,0.00,VWS V14.01,2013-01-10 21:01:00,
2013-01-10 16:30:00,49.1,27.0,30.40,WNW,292,0.0,2.0,42,0.00,,,0.00,VWS V14.01,2013-01-10 21:30:00,
2013-01-10 16:31:00,49.1,27.0,30.40,WNW,298,0.0,2.0,42,0.00,,,0.00,VWS V14.01,2013-01-10 21:31:00,
2013-01-10 17:00:00,47.6,27.3,30.39,WNW,292,0.0,1.0,45,0.00,,,0.00,VWS V14.01,2013-01-10 22:00:00,
2013-01-10 17:01:00,47.6,27.3,30.39,WNW,298,0.0,1.0,45,0.00,,,0.00,VWS V14.01,2013-01-10 22:01:00,
2013-01-10 17:30:00,46.2,27.1,30.39,WNW,292,0.0,1.0,47,0.00,,,0.00,VWS V14.01,2013-01-10 22:30:00,
2013-01-10 17:31:00,46.4,27.3,30.39,WNW,298,0.0,1.0,47,0.00,,,0.00,VWS V14.01,2013-01-10 22:31:00,
2013-01-10 18:00:00,45.2,27.7,30.39,WNW,292,0.0,0.0,50,0.00,,,0.00,VWS V14.01,2013-01-10 23:00:00,
2013-01-10 18:01:00,45.2,27.7,30.39,WNW,298,0.0,0.0,50,0.00,,,0.00,VWS V14.01,2013-01-10 23:01:00,
2013-01-10 18:30:00,44.5,27.5,30.40,WNW,292,0.0,0.0,51,0.00,,,0.00,VWS V14.01,2013-01-10 23:30:00,
2013-01-10 18:31:00,44.5,27.5,30.40,WNW,298,0.0,0.0,51,0.00,,,0.00,VWS V14.01,2013-01-10 23:31:00,
2013-01-10 19:00:00,44.1,27.6,30.40,WNW,292,0.0,0.0,52,0.00,,,0.00,VWS V14.01,2013-01-11 00:00:00,
2013-01-10 19:01:00,44.1,27.6,30.40,WNW,298,0.0,0.0,52,0.00,,,0.00,VWS V14.01,2013-01-11 00:01:00,
2013-01-10 19:30:00,43.2,29.4,30.40,WNW,292,0.0,0.0,58,0.00,,,0.00,VWS V14.01,2013-01-11 00:30:00,
2013-01-10 19:31:00,43.2,29.4,30.40,WNW,298,0.0,0.0,58,0.00,,,0.00,VWS V14.01,2013-01-11 00:31:00,
2013-01-10 20:00:00,42.3,29.4,30.40,WNW,292,0.0,1.0,60,0.00,,,0.00,VWS V14.01,2013-01-11 01:00:00,
2013-01-10 20:01:00,42.3,29.4,30.40,WNW,298,0.0,1.0,60,0.00,,,0.00,VWS V14.01,2013-01-11 01:01:00,
2013-01-10 20:30:00,41.5,28.3,30.40,WNW,292,0.0,0.0,59,0.00,,,0.00,VWS V14.01,2013-01-11 01:30:00,
2013-01-10 20:31:00,41.5,28.3,30.40,WNW,298,0.0,0.0,59,0.00,,,0.00,VWS V14.01,2013-01-11 01:31:00,
2013-01-10 21:00:00,40.9,28.1,30.40,WNW,292,0.0,0.0,60,0.00,,,0.00,VWS V14.01,2013-01-11 02:00:00,
2013-01-10 21:01:00,40.9,28.1,30.40,WNW,298,0.0,0.0,60,0.00,,,0.00,VWS V14.01,2013-01-11 02:01:00,
2013-01-10 21:30:00,39.9,29.1,30.41,WNW,292,0.0,1.0,65,0.00,,,0.00,VWS V14.01,2013-01-11 02:30:00,
2013-01-10 21:31:00,39.9,29.1,30.41,WNW,298,0.0,1.0,65,0.00,,,0.00,VWS V14.01,2013-01-11 02:31:00,
2013-01-10 22:00:00,39.8,28.2,30.41,WNW,292,0.0,1.0,63,0.00,,,0.00,VWS V14.01,2013-01-11 03:00:00,
2013-01-10 22:01:00,39.8,28.2,30.41,WNW,298,0.0,0.0,63,0.00,,,0.00,VWS V14.01,2013-01-11 03:01:00,
2013-01-10 22:30:00,39.2,29.9,30.39,WNW,292,0.0,0.0,69,0.00,,,0.00,VWS V14.01,2013-01-11 03:30:00,
2013-01-10 22:31:00,39.2,29.9,30.39,WNW,298,0.0,0.0,69,0.00,,,0.00,VWS V14.01,2013-01-11 03:31:00,
2013-01-10 23:00:00,37.9,30.7,30.39,WNW,292,0.0,0.0,75,0.00,,,0.00,VWS V14.01,2013-01-11 04:00:00,
2013-01-10 23:01:00,37.9,30.7,30.39,WNW,298,0.0,0.0,75,0.00,,,0.00,VWS V14.01,2013-01-11 04:01:00,
2013-01-10 23:30:00,37.5,31.0,30.39,WNW,292,0.0,0.0,77,0.00,,,0.00,VWS V14.01,2013-01-11 04:30:00,
2013-01-10 23:31:00,37.5,31.0,30.39,WNW,298,0.0,0.0,77,0.00,,,0.00,VWS V14.01,2013-01-11 04:31:00,